• în România
  • Lista ţărilor
  • Pe 7 zile
  • Temperatura apei
  • Hartă satelitară
  • Meteo pe hartă
  • Widget-uri
  • user-avatar
    Intrare

    Meteo pe oră la Graz

    Astăzi, 24 Iulie, Luni

    Timp Temperatura Precipitaţii Vânt Presiune Umiditate
    00:00 +20°C° 0,3 mm 1 m/s 723 mmHg 93%
    01:00 +20°C° 0,3 mm 1 m/s 723 mmHg 94%
    02:00 +20°C° 0,6 mm 1 m/s 723 mmHg 94%
    03:00 +19°C° 0,6 mm 1 m/s 722 mmHg 94%
    04:00 +17°C° 0,6 mm 0 m/s 722 mmHg 94%
    05:00 +20°C° 1,7 mm 1 m/s 721 mmHg 95%
    06:00 +20°C° 1,7 mm 1 m/s 721 mmHg 95%
    07:00 +21°C° 1,7 mm 1 m/s 721 mmHg 95%
    08:00 +21°C° 0,8 mm 1 m/s 720 mmHg 93%
    09:00 +22°C° 0,8 mm 1 m/s 720 mmHg 91%
    10:00 +22°C° 0,8 mm 1 m/s 720 mmHg 89%
    11:00 +23°C° 0,8 mm 1 m/s 720 mmHg 86%
    12:00 +24°C° 0,8 mm 1 m/s 719 mmHg 84%
    13:00 +24°C° 0,8 mm 1 m/s 719 mmHg 81%
    14:00 +23°C° 2,2 mm 1 m/s 719 mmHg 84%
    15:00 +21°C° 2,2 mm 2 m/s 718 mmHg 87%
    16:00 +20°C° 2,2 mm 2 m/s 718 mmHg 90%
    17:00 +20°C° 0,5 mm 2 m/s 718 mmHg 91%
    18:00 +19°C° 0,5 mm 2 m/s 718 mmHg 91%
    19:00 +18°C° 0,5 mm 2 m/s 717 mmHg 92%
    20:00 +17°C° 0 mm 2 m/s 718 mmHg 93%
    21:00 +17°C° 0 mm 2 m/s 718 mmHg 93%
    22:00 +16°C° 0 mm 1 m/s 718 mmHg 94%
    23:00 +16°C° 0,1 mm 2 m/s 718 mmHg 93%

    Mâine, 25 Iulie, Marţi

    Timp Temperatura Precipitaţii Vânt Presiune Umiditate
    00:00 +16°C° 0,1 mm 2 m/s 718 mmHg 93%
    01:00 +16°C° 0,1 mm 2 m/s 719 mmHg 92%
    02:00 +15°C° 0 mm 2 m/s 718 mmHg 92%
    03:00 +15°C° 0 mm 2 m/s 718 mmHg 92%
    04:00 +15°C° 0 mm 1 m/s 718 mmHg 92%
    05:00 +15°C° 0 mm 2 m/s 718 mmHg 89%
    06:00 +16°C° 0 mm 2 m/s 718 mmHg 86%
    07:00 +17°C° 0 mm 2 m/s 718 mmHg 83%
    08:00 +18°C° 0 mm 2 m/s 718 mmHg 72%
    09:00 +20°C° 0 mm 2 m/s 718 mmHg 61%
    10:00 +22°C° 0 mm 3 m/s 718 mmHg 49%
    11:00 +23°C° 0 mm 2 m/s 718 mmHg 46%
    12:00 +24°C° 0 mm 2 m/s 718 mmHg 43%
    13:00 +25°C° 0 mm 2 m/s 718 mmHg 40%
    14:00 +25°C° 0,1 mm 2 m/s 718 mmHg 42%
    15:00 +24°C° 0,1 mm 2 m/s 718 mmHg 44%
    16:00 +24°C° 0,1 mm 2 m/s 718 mmHg 47%
    17:00 +23°C° 0,2 mm 1 m/s 718 mmHg 55%
    18:00 +21°C° 0,2 mm 1 m/s 718 mmHg 63%
    19:00 +20°C° 0,2 mm 1 m/s 718 mmHg 71%
    20:00 +18°C° 0,1 mm 1 m/s 718 mmHg 75%
    21:00 +16°C° 0,1 mm 1 m/s 718 mmHg 79%
    22:00 +15°C° 0,1 mm 1 m/s 718 mmHg 82%
    23:00 +14°C° 0,1 mm 1 m/s 718 mmHg 83%

    Poimâine, 26 Iulie, Miercuri

    Timp Temperatura Precipitaţii Vânt Presiune Umiditate
    00:00 +14°C° 0,1 mm 1 m/s 718 mmHg 85%
    01:00 +13°C° 0,1 mm 1 m/s 718 mmHg 86%
    02:00 +13°C° 0,1 mm 1 m/s 718 mmHg 86%
    03:00 +13°C° 0,1 mm 1 m/s 718 mmHg 86%
    04:00 +13°C° 0,1 mm 1 m/s 718 mmHg 87%
    05:00 +14°C° 0,1 mm 1 m/s 718 mmHg 83%
    06:00 +15°C° 0,1 mm 0 m/s 718 mmHg 79%
    07:00 +16°C° 0,1 mm 0 m/s 718 mmHg 75%
    08:00 +20°C° 0 mm 1 m/s 718 mmHg 67%
    09:00 +22°C° 0 mm 1 m/s 718 mmHg 60%
    10:00 +24°C° 0 mm 1 m/s 718 mmHg 53%
    11:00 +23°C° 1,1 mm 1 m/s 718 mmHg 58%
    12:00 +23°C° 1,1 mm 1 m/s 718 mmHg 64%
    13:00 +22°C° 1,1 mm 1 m/s 718 mmHg 70%
    14:00 +21°C° 1,6 mm 2 m/s 718 mmHg 73%
    15:00 +20°C° 1,6 mm 2 m/s 718 mmHg 75%
    16:00 +19°C° 1,6 mm 2 m/s 718 mmHg 78%
    17:00 +18°C° 2,9 mm 2 m/s 718 mmHg 83%
    18:00 +17°C° 2,9 mm 2 m/s 719 mmHg 89%
    19:00 +15°C° 2,9 mm 2 m/s 719 mmHg 94%
    20:00 +15°C° 2,3 mm 2 m/s 719 mmHg 94%
    21:00 +14°C° 2,3 mm 2 m/s 720 mmHg 95%
    22:00 +14°C° 2,3 mm 2 m/s 721 mmHg 96%
    23:00 +14°C° 0,4 mm 2 m/s 721 mmHg 96%

    27 Iulie, Joi

    Timp Temperatura Precipitaţii Vânt Presiune Umiditate
    00:00 +13°C° 0,4 mm 2 m/s 721 mmHg 95%
    01:00 +13°C° 0,4 mm 2 m/s 721 mmHg 95%
    02:00 +13°C° 0 mm 2 m/s 721 mmHg 95%
    03:00 +13°C° 0 mm 2 m/s 721 mmHg 95%
    04:00 +12°C° 0 mm 2 m/s 721 mmHg 95%
    05:00 +13°C° 0 mm 1 m/s 722 mmHg 93%
    06:00 +14°C° 0 mm 1 m/s 722 mmHg 91%
    07:00 +15°C° 0 mm 1 m/s 723 mmHg 89%
    08:00 +19°C° 0 mm 1 m/s 723 mmHg 76%
    09:00 +22°C° 0 mm 1 m/s 723 mmHg 63%
    10:00 +24°C° 0 mm 1 m/s 723 mmHg 50%
    11:00 +25°C° 0 mm 1 m/s 723 mmHg 48%
    12:00 +26°C° 0 mm 1 m/s 723 mmHg 46%
    13:00 +26°C° 0 mm 1 m/s 723 mmHg 45%
    14:00 +26°C° 0 mm 1 m/s 722 mmHg 45%
    15:00 +24°C° 0 mm 0 m/s 722 mmHg 46%
    16:00 +24°C° 0 mm 0 m/s 722 mmHg 47%
    17:00 +23°C° 0 mm 0 m/s 722 mmHg 54%
    18:00 +21°C° 0 mm 0 m/s 722 mmHg 61%
    19:00 +19°C° 0 mm 0 m/s 722 mmHg 68%
    20:00 +20°C° 0 mm 1 m/s 722 mmHg 71%
    21:00 +19°C° 0 mm 1 m/s 723 mmHg 74%
    22:00 +18°C° 0 mm 1 m/s 723 mmHg 76%
    23:00 +16°C° 0 mm 1 m/s 723 mmHg 78%

    28 Iulie, Vineri

    Timp Temperatura Precipitaţii Vânt Presiune Umiditate
    00:00 +16°C° 0 mm 1 m/s 723 mmHg 80%
    01:00 +16°C° 0 mm 1 m/s 723 mmHg 81%
    02:00 +15°C° 0 mm 1 m/s 723 mmHg 81%
    03:00 +15°C° 0 mm 1 m/s 723 mmHg 82%
    04:00 +15°C° 0 mm 1 m/s 724 mmHg 82%
    05:00 +16°C° 0 mm 1 m/s 724 mmHg 78%
    06:00 +19°C° 0 mm 1 m/s 724 mmHg 75%
    07:00 +20°C° 0 mm 1 m/s 724 mmHg 71%
    08:00 +23°C° 0 mm 1 m/s 725 mmHg 63%
    09:00 +25°C° 0 mm 1 m/s 725 mmHg 54%
    10:00 +28°C° 0 mm 1 m/s 725 mmHg 46%
    11:00 +29°C° 0 mm 1 m/s 725 mmHg 43%
    12:00 +30°C° 0 mm 1 m/s 725 mmHg 41%
    13:00 +31°C° 0 mm 1 m/s 725 mmHg 38%
    14:00 +30°C° 0 mm 1 m/s 724 mmHg 40%
    15:00 +30°C° 0 mm 1 m/s 724 mmHg 43%
    16:00 +29°C° 0 mm 1 m/s 724 mmHg 46%
    17:00 +27°C° 0,3 mm 1 m/s 724 mmHg 55%
    18:00 +25°C° 0,3 mm 1 m/s 725 mmHg 65%
    19:00 +23°C° 0,3 mm 2 m/s 725 mmHg 74%
    20:00 +21°C° 0,1 mm 2 m/s 725 mmHg 78%
    21:00 +20°C° 0,1 mm 2 m/s 726 mmHg 83%
    22:00 +19°C° 0,1 mm 1 m/s 726 mmHg 87%
    23:00 +19°C° 0,1 mm 1 m/s 726 mmHg 88%

    29 Iulie, Sâmbătă

    Timp Temperatura Precipitaţii Vânt Presiune Umiditate
    00:00 +18°C° 0,1 mm 1 m/s 727 mmHg 90%
    01:00 +18°C° 0,1 mm 1 m/s 727 mmHg 91%
    02:00 +16°C° 0 mm 1 m/s 727 mmHg 92%
    03:00 +16°C° 0 mm 1 m/s 727 mmHg 92%
    04:00 +16°C° 0 mm 1 m/s 727 mmHg 92%
    05:00 +18°C° 0 mm 1 m/s 728 mmHg 88%
    06:00 +19°C° 0 mm 1 m/s 728 mmHg 85%
    07:00 +21°C° 0 mm 1 m/s 728 mmHg 81%
    08:00 +23°C° 0 mm 1 m/s 729 mmHg 72%
    09:00 +25°C° 0 mm 1 m/s 729 mmHg 63%
    10:00 +27°C° 0 mm 1 m/s 729 mmHg 54%
    11:00 +27°C° 0 mm 1 m/s 729 mmHg 54%
    12:00 +28°C° 0 mm 1 m/s 728 mmHg 54%
    13:00 +28°C° 0 mm 1 m/s 728 mmHg 55%
    14:00 +28°C° 0,1 mm 1 m/s 728 mmHg 55%
    15:00 +28°C° 0,1 mm 1 m/s 727 mmHg 56%
    16:00 +28°C° 0,1 mm 1 m/s 727 mmHg 57%
    17:00 +27°C° 0,1 mm 1 m/s 727 mmHg 64%
    18:00 +25°C° 0,1 mm 1 m/s 727 mmHg 71%
    19:00 +24°C° 0,1 mm 1 m/s 727 mmHg 78%
    20:00 +21°C° 0 mm 0 m/s 727 mmHg 80%
    21:00 +20°C° 0 mm 0 m/s 728 mmHg 83%
    22:00 +19°C° 0 mm 0 m/s 728 mmHg 85%
    23:00 +18°C° 0 mm 0 m/s 728 mmHg 86%
    Arată mai mult